Weather History for Kansas City International, MO

Change the Weather History Date:

Saturday, January 5, 2013

  Actual Average Record
Temperature  
Mean Temperature 35 °F 29 °F  
Max Temperature 43 °F 38 °F 68 °F (1956)
Min Temperature 26 °F 20 °F -15 °F (1924)
Degree Days  
Heating Degree Days 30 36  
Month to date heating degree days 197 180  
Since 1 July heating degree days 2035 2222  
Cooling Degree Days 0 0  
Month to date cooling degree days 0 0  
Year to date cooling degree days 0 0  
Moisture  
Dew Point 26 °F    
Average Humidity 68    
Maximum Humidity 75    
Minimum Humidity 60    
Precipitation  
Precipitation 0.00 in 0.03 in 1.20 in (1946)
Month to date precipitation T 0.17  
Year to date precipitation T 0.17  
Snow  
Snow 0.00 in 0.10 in 10.10 in (1962)
Month to date snowfall T 0.7  
Since 1 July snowfall 3.7 6.9  
Snow Depth T in    
Sea Level Pressure  
Sea Level Pressure 30.15 in    
Wind  
Wind Speed 11 mph (SW)    
Max Wind Speed 21 mph    
Max Gust Speed 25 mph    
Visibility 10 miles    
Events      
T = Trace of Precipitation, MM = Missing Value Source: NWS Daily Summary

Daily Weather History Graph

Daily Weather History Graph

Search for Another Location

Airport:

Trip Planner

Search our weather history database for the weather conditions in past years. The results will help you decide how hot, cold, wet, or windy it might be!

Date:

Astronomy

Jan. 05, 2013 Rise Set
Actual Time 7:38 AM CST 5:10 PM CST
Civil Twilight 7:09 AM CST 5:40 PM CST
Nautical Twilight 6:35 AM CST 6:13 PM CST
Astronomical Twilight 6:03 AM CST 6:46 PM CST
Moon 12:47 AM CST (1/5) 11:59 AM CST (1/5)
Length of Visible Light 10h 31m
Length of Day
9h 31m
Last Quarter, 44% of the Moon is Illuminated
Jan 5
Last Quarter
Jan 11
New
Jan 18
First Quarter
Jan 26
Full
Feb 3
Last Quarter

Hourly Weather History & Observations

Time (CST) Temp. Windchill Dew Point Humidity Pressure Visibility Wind Dir Wind Speed Gust Speed Precip Events Conditions
12:53 AM 32.0 °F 23.0 °F 23.0 °F 69% 30.23 in 10.0 mi SSW 11.5 mph - N/A   Clear
1:53 AM 33.1 °F 24.9 °F 23.0 °F 66% 30.22 in 10.0 mi SSW 10.4 mph - N/A   Overcast
2:53 AM 30.9 °F 22.8 °F 21.9 °F 69% 30.22 in 10.0 mi SSW 9.2 mph - N/A   Clear
3:53 AM 26.1 °F 18.4 °F 19.9 °F 78% 30.22 in 10.0 mi SSW 6.9 mph - N/A   Partly Cloudy
4:53 AM 32.0 °F 25.6 °F 23.0 °F 69% 30.19 in 10.0 mi SSW 6.9 mph - N/A   Mostly Cloudy
5:53 AM 33.1 °F 24.4 °F 24.1 °F 70% 30.19 in 10.0 mi SW 11.5 mph - N/A   Scattered Clouds
6:53 AM 33.8 °F 25.8 °F 24.8 °F 70% 30.17 in 10.0 mi SSW 10.4 mph - N/A   Overcast
7:53 AM 35.1 °F 27.4 °F 26.1 °F 70% 30.19 in 10.0 mi SSW 10.4 mph - N/A   Overcast
8:53 AM 36.0 °F 27.5 °F 28.9 °F 76% 30.18 in 10.0 mi SSW 12.7 mph - N/A   Overcast
9:53 AM 36.0 °F 27.1 °F 28.9 °F 76% 30.19 in 10.0 mi South 13.8 mph - N/A   Overcast
10:53 AM 37.9 °F 30.0 °F 28.9 °F 70% 30.17 in 10.0 mi SSW 12.7 mph - N/A   Mostly Cloudy
11:53 AM 39.0 °F 30.3 °F 30.0 °F 70% 30.13 in 10.0 mi SSW 16.1 mph 23.0 mph N/A   Overcast
12:53 PM 42.1 °F 33.9 °F 30.0 °F 62% 30.09 in 10.0 mi SSW 17.3 mph 25.3 mph N/A   Mostly Cloudy
1:53 PM 41.0 °F 33.9 °F 30.0 °F 65% 30.06 in 10.0 mi SW 12.7 mph - N/A   Mostly Cloudy
2:53 PM 43.0 °F 35.7 °F 30.0 °F 60% 30.06 in 10.0 mi SW 15.0 mph 21.9 mph N/A   Mostly Cloudy
3:53 PM 43.0 °F 36.4 °F 30.0 °F 60% 30.08 in 10.0 mi SW 12.7 mph - N/A   Mostly Cloudy
4:53 PM 41.0 °F 34.7 °F 28.4 °F 61% 30.06 in 10.0 mi SW 10.4 mph - N/A   Partly Cloudy
5:53 PM 39.9 °F 32.9 °F 28.9 °F 65% 30.09 in 10.0 mi West 11.5 mph 20.7 mph N/A   Clear
6:53 PM 37.9 °F 29.6 °F 27.0 °F 65% 30.13 in 10.0 mi West 13.8 mph 20.7 mph N/A   Clear
7:53 PM 34.0 °F 25.5 °F 24.1 °F 67% 30.15 in 10.0 mi WNW 11.5 mph - N/A   Clear
8:53 PM 32.0 °F 24.2 °F 23.0 °F 69% 30.16 in 10.0 mi West 9.2 mph - N/A   Clear
9:53 PM 30.0 °F 23.2 °F 21.0 °F 69% 30.17 in 10.0 mi West 6.9 mph - N/A   Clear
10:53 PM 30.0 °F 22.4 °F 21.0 °F 69% 30.17 in 10.0 mi West 8.1 mph - N/A   Clear
11:53 PM 28.9 °F 21.1 °F 21.0 °F 72% 30.18 in 10.0 mi WNW 8.1 mph - N/A   Clear